Valladolid Airport, Spain

4:38 AM CEST on August 25, 2016 (GMT +0200)
Villanubla

Weather History for LEVD - September, 2012

Change the Weather History Date:

Saturday, September 29, 2012

  Actual Average Record
Temperature  
Mean Temperature 56 °F -  
Max Temperature 60 °F - - ()
Min Temperature 50 °F - - ()
Degree Days  
Heating Degree Days 10    
Growing Degree Days 6 (Base 50)    
Moisture  
Dew Point 48 °F    
Average Humidity 77    
Maximum Humidity 100    
Minimum Humidity 52    
Precipitation  
Precipitation 0.00 in - - ()
Sea Level Pressure  
Sea Level Pressure 30.04 in    
Wind  
Wind Speed 19 mph ()    
Max Wind Speed 28 mph    
Max Gust Speed 37 mph    
Visibility 6.1 miles    
Events Rain    
T = Trace of Precipitation, MM = Missing Value Source: Averaged Metar Reports

Daily Weather History Graph

Daily Weather History Graph

Search for Another Location

Airport or City:

Trip Planner

Search our weather history database for the weather conditions in past years. The results will help you decide how hot, cold, wet, or windy it might be!

Date:

Astronomy

Sep. 29, 2012 Rise Set
Actual Time 8:14 AM CEST 8:04 PM CEST
Civil Twilight 7:46 AM CEST 8:31 PM CEST
Nautical Twilight 7:14 AM CEST 9:03 PM CEST
Astronomical Twilight 6:41 AM CEST 9:36 PM CEST
Moon 7:28 PM CEST (9/29) 7:31 AM CEST (9/29)
Length of Visible Light 12h 45m
Length of Day
11h 49m
Waxing Gibbous, 99% of the Moon is Illuminated
Sep 29
Waxing Gibbous
Sep 30
Full
Oct 8
Last Quarter
Oct 15
New
Oct 22
First Quarter

Hourly Weather History & Observations

Time (CEST) Temp. Dew Point Humidity Pressure Visibility Wind Dir Wind Speed Gust Speed Precip Events Conditions
6:00 AM 53.6 °F 51.8 °F 94% 29.92 in 6.2 mi NE 19.6 mph 31.1 mph N/A Rain Light Rain
6:30 AM 53.6 °F 51.8 °F 94% 29.95 in 6.2 mi NE 17.3 mph - N/A Rain Light Rain
7:00 AM 53.6 °F 51.8 °F 94% 29.95 in 6.2 mi NE 19.6 mph - N/A   Overcast
7:30 AM 53.6 °F 51.8 °F 94% 29.95 in 6.2 mi NE 20.7 mph - N/A   Overcast
8:00 AM 51.8 °F 51.8 °F 100% 29.95 in 3.1 mi NE 19.6 mph - N/A Rain Rain
8:30 AM 53.6 °F 51.8 °F 94% 29.98 in 6.2 mi NE 17.3 mph - N/A   Light Drizzle
9:00 AM 53.6 °F 51.8 °F 94% 29.98 in 6.2 mi NE 19.6 mph - N/A   Overcast
9:30 AM 53.6 °F 51.8 °F 94% 30.01 in 6.2 mi NE 20.7 mph - N/A   Mostly Cloudy
10:00 AM 53.6 °F 51.8 °F 94% 30.01 in 6.2 mi NE 21.9 mph 33.4 mph N/A   Mostly Cloudy
10:30 AM 53.6 °F 51.8 °F 94% 30.01 in 6.2 mi NE 24.2 mph - N/A   Scattered Clouds
11:00 AM 55.4 °F 51.8 °F 88% 30.04 in 6.2 mi NE 25.3 mph 36.8 mph N/A   Mostly Cloudy
11:30 AM 55.4 °F 51.8 °F 88% 30.04 in 6.2 mi NE 23.0 mph - N/A   Scattered Clouds
12:00 PM 55.4 °F 51.8 °F 88% 30.06 in 6.2 mi NE 21.9 mph - N/A   Scattered Clouds
12:30 PM 55.4 °F 51.8 °F 88% 30.04 in 6.2 mi NE 23.0 mph - N/A   Scattered Clouds
1:00 PM 57.2 °F 50.0 °F 77% 30.04 in 6.2 mi NE 25.3 mph - N/A   Mostly Cloudy
1:30 PM 57.2 °F 48.2 °F 72% 30.04 in 6.2 mi NE 24.2 mph 36.8 mph N/A   Mostly Cloudy
2:00 PM 60.8 °F 50.0 °F 68% 30.04 in 6.2 mi NE 27.6 mph - N/A   Scattered Clouds
2:30 PM 59.0 °F 48.2 °F 67% 30.04 in 6.2 mi NE 25.3 mph - N/A   Mostly Cloudy
3:00 PM 59.0 °F 48.2 °F 67% 30.06 in 6.2 mi NE 26.5 mph - N/A   Mostly Cloudy
3:30 PM 59.0 °F 48.2 °F 67% 30.06 in 6.2 mi ENE 23.0 mph - N/A   Mostly Cloudy
4:00 PM 59.0 °F 46.4 °F 63% 30.06 in 6.2 mi NE 23.0 mph - N/A   Mostly Cloudy
4:30 PM 60.8 °F 46.4 °F 59% 30.06 in 6.2 mi ENE 24.2 mph - N/A   Scattered Clouds
5:00 PM 60.8 °F 42.8 °F 52% 30.06 in 6.2 mi NE 20.7 mph 35.7 mph N/A   Partly Cloudy
5:30 PM 60.8 °F 42.8 °F 52% 30.06 in 6.2 mi NE 21.9 mph - N/A   Partly Cloudy
6:00 PM 60.8 °F 42.8 °F 52% 30.06 in 6.2 mi NE 20.7 mph - N/A   Partly Cloudy
6:30 PM 60.8 °F 44.6 °F 55% 30.06 in 6.2 mi NE 25.3 mph - N/A   Partly Cloudy
7:00 PM 59.0 °F 44.6 °F 59% 30.09 in 6.2 mi NE 21.9 mph 33.4 mph N/A   Partly Cloudy
7:30 PM 57.2 °F 46.4 °F 67% 30.09 in 6.2 mi ENE 19.6 mph - N/A   Partly Cloudy
8:00 PM 55.4 °F 44.6 °F 67% 30.09 in 6.2 mi ENE 17.3 mph - N/A   Partly Cloudy
8:30 PM 53.6 °F 44.6 °F 72% 30.09 in 6.2 mi ENE 15.0 mph - N/A   Partly Cloudy
9:00 PM 51.8 °F 44.6 °F 76% 30.12 in 6.2 mi ENE 13.8 mph - N/A   Partly Cloudy
9:30 PM 51.8 °F 44.6 °F 76% 30.12 in 6.2 mi ENE 12.7 mph - N/A   Partly Cloudy
10:00 PM 51.8 °F 46.4 °F 82% 30.15 in 6.2 mi ENE 9.2 mph - N/A   Partly Cloudy
10:30 PM 50.0 °F 46.4 °F 87% 30.15 in 6.2 mi ENE 12.7 mph - N/A   Partly Cloudy